Location: Churchill Northern Studies Centre
(58.7378°N, 93.8201°W)
Time: 10:52:32
(UTC-06:00)

N. Korean satellite - Pass Details

Date: 14 October 2017
Orbit: 461 x 513 km, 97.2° (Epoch: 17 December)

Event Time Altitude Azimuth Distance (km) Brightness Sun altitude
Rises 20:03:07 0° 201° (SSW) 2,535 10.4 -15.3°
Reaches altitude 10° 20:05:33 10° 218° (SW) 1,651 9.6 -15.6°
Maximum altitude 20:08:17 21° 268° (W) 1,129 9.4 -16.0°
Drops below altitude 10° 20:11:01 10° 319° (NW) 1,642 10.0 -16.3°
Sets 20:13:27 0° 337° (NNW) 2,518 10.7 -16.6°
